Flag for India Weather past 2 weeks in Sivaganga, Tamil Nadu, India

Now
82 °F

Broken clouds.


Feels Like: 88 °F
Forecast: 78 / 92 °F
Wind: 6 mph from Northeast

Location: Tiruchchirapalli

Current Time: Apr 26, 2015 at 6:06:26 PM

Latest Report: Apr 26, 2015 at 5:40 PM


Visibility: 4 mi

Pressure: 29.77 "Hg

Humidity: 74%

Dew point: 73 °F

Location of SivagangaLocation

Historic Weather in Sivaganga — Graph

°F

Sivaganga temperature yesterday

Maximum temperature yesterday: 90 °F (at 3:40 PM)
Minimum temperature yesterday: 73 °F (at 3:10 AM)
Average temperature yesterday: 81 °F

Past Weeks' High & Low Weather Summary

 TemperatureHumidityPressure
High102 °F (Apr 12, 2:40 PM)100% (Apr 13, 2:40 AM)29.98 "Hg (Apr 13, 2:40 AM)
Low70 °F (Apr 18, 2:40 AM)31% (Apr 12, 2:40 PM)29.68 "Hg (Apr 18, 3:10 PM)
Average86 °F69%29.83 "Hg
* Reported Apr 11 4:40 PM — Apr 26 4:40 PM, Sivaganga, Weather by CustomWeather, © 2015

Note: Actual official high and low records may vary slightly from our data, if they occured in-between our weather recording intervals... More about our weather records

Advertising

Sivaganga weather history for previous 24 hours

 ConditionsComfort  
Time TempWeatherWind HumidityBarometerVisibility
4:40 PM
Sun, Apr 26
82 °FBroken clouds.5 mph74%29.74 "Hg5 mi
3:40 PM79 °FThunderstorms. Broken clouds.7 mph79%29.77 "Hg2 mi
3:10 PM88 °FThunderstorms. Broken clouds.17 mph66%29.77 "Hg2 mi
2:10 PM95 °FScattered clouds.3 mph50%29.77 "Hg4 mi
1:40 PM95 °FScattered clouds.3 mph53%29.80 "Hg5 mi
1:10 PM95 °FScattered clouds.3 mph53%29.80 "Hg5 mi
12:40 PM93 °FScattered clouds.6 mph56%29.83 "Hg5 mi
12:10 PM93 °FScattered clouds.7 mph56%29.83 "Hg5 mi
11:40 AM91 °FScattered clouds.7 mph59%29.86 "Hg4 mi
11:10 AM91 °FScattered clouds.5 mph59%29.86 "Hg4 mi
10:40 AM90 °FScattered clouds.7 mph67%29.86 "Hg4 mi
10:10 AM88 °FScattered clouds.3 mph70%29.89 "Hg4 mi
9:40 AM86 °FScattered clouds.6 mph75%29.89 "Hg3 mi
9:10 AM84 °FPartly sunny.5 mph74%29.89 "Hg3 mi
8:10 AM82 °FFog.5 mph79%29.86 "Hg2 mi
7:40 AM81 °FFog.2 mph84%29.86 "Hg2 mi
7:10 AM81 °FFog.2 mph84%29.83 "Hg2 mi
6:40 AM81 °FFog.2 mph84%29.83 "Hg2 mi
6:10 AM81 °FFog.2 mph84%29.83 "Hg2 mi
5:40 AM79 °FFog.2 mph89%29.83 "Hg3 mi
5:10 AM79 °FFog.3 mph84%29.83 "Hg3 mi
4:40 AM79 °FFog.6 mph89%29.80 "Hg3 mi
3:10 AM79 °FPassing clouds.6 mph89%29.77 "Hg4 mi
2:40 AM81 °FPassing clouds.3 mph84%29.80 "Hg4 mi
1:40 AM81 °FPassing clouds.5 mph84%29.80 "Hg4 mi
1:10 AM81 °FPassing clouds.2 mph84%29.80 "Hg4 mi
12:40 AM81 °FPassing clouds.3 mph84%29.80 "Hg4 mi
11:10 PM
Sat, Apr 25
81 °FPartly cloudy.6 mph89%29.80 "Hg4 mi
10:40 PM82 °FPartly cloudy.3 mph79%29.80 "Hg4 mi
10:10 PM82 °FPartly cloudy.3 mph79%29.80 "Hg4 mi
9:40 PM84 °FPartly cloudy.6 mph74%29.80 "Hg4 mi
9:10 PM84 °FPartly cloudy.7 mph74%29.80 "Hg4 mi
8:40 PM84 °FPartly cloudy.3 mph74%29.80 "Hg4 mi
7:40 PM84 °FPartly cloudy.3 mph74%29.77 "Hg4 mi
7:10 PM86 °FPartly cloudy.2 mph66%29.77 "Hg4 mi
6:40 PM86 °FBroken clouds.3 mph66%29.77 "Hg4 mi
6:10 PM88 °FBroken clouds.No wind62%29.77 "Hg4 mi
Weather by CustomWeather, © 2015

See weather overviewHow to use our weather pages